This is the latest recevied weather packets stored in our database for station/object W4NDF-13. If no packets are shown the sender has not sent any weather packets the latest 10 day(s).
| Time | Temp. | Humidity | Pressure | Rain* | Wind** | Luminosity | Snow |
|---|---|---|---|---|---|---|---|
| 1777670198 | 16.67° C | 99% | 1012.3 hPa | 6.1 mm | - | 46 W/m² | - |
| 1777669895 | 16.67° C | 99% | 1012.6 hPa | 1.78 mm | - | 13 W/m² | - |
| 1777669592 | 17.22° C | 99% | 1012.3 hPa | 0 mm | - | 9 W/m² | - |
| 1777669288 | 16.67° C | 99% | 1012 hPa | 1.27 mm | - | 17 W/m² | - |
| 1777668985 | 16.67° C | 99% | 1012.1 hPa | 4.32 mm | - | 45 W/m² | - |
| 1777668683 | 17.22° C | 99% | 1012 hPa | 9.65 mm | - | 87 W/m² | - |
| 1777668379 | 16.67° C | 99% | 1012.9 hPa | 8.89 mm | - | 17 W/m² | - |
| 1777668075 | 16.67° C | 99% | 1013.2 hPa | 7.87 mm | - | 21 W/m² | - |
| 1777667772 | 17.22° C | 99% | 1012.4 hPa | 16.76 mm | - | 8 W/m² | - |
| 1777667469 | 17.22° C | 99% | 1011.9 hPa | 13.72 mm | - | 21 W/m² | - |
| 1777667166 | 17.22° C | 99% | 1012.2 hPa | 15.49 mm | - | 22 W/m² | - |
| 1777666863 | 17.22° C | 99% | 1012.1 hPa | 19.81 mm | - | 18 W/m² | - |
| 1777666560 | 17.22° C | 99% | 1012.1 hPa | 8.89 mm | - | 13 W/m² | - |
| 1777666256 | 17.78° C | 99% | 1012.6 hPa | 10.67 mm | - | 6 W/m² | - |
| 1777665953 | 17.78° C | 99% | 1011.6 hPa | 36.58 mm | - | 22 W/m² | - |
| 1777665651 | 18.33° C | 99% | 1011.8 hPa | 71.37 mm | - | 36 W/m² | - |
| 1777665348 | 18.89° C | 99% | 1011.8 hPa | 71.37 mm | - | 37 W/m² | - |
| 1777665043 | 18.89° C | 99% | 1012.3 hPa | 44.45 mm | - | 28 W/m² | - |
| 1777664739 | 18.89° C | 99% | 1011.8 hPa | 18.54 mm | - | 11 W/m² | - |
| 1777664435 | 18.89° C | 99% | 1011.3 hPa | 8.89 mm | - | 10 W/m² | - |
| 1777664133 | 18.89° C | 99% | 1011.2 hPa | 13.72 mm | - | 13 W/m² | - |
| 1777663831 | 19.44° C | 99% | 1010.9 hPa | 11.94 mm | - | 8 W/m² | - |
| 1777663528 | 19.44° C | 98% | 1011.1 hPa | 1.78 mm | - | 15 W/m² | - |
| 1777663226 | 19.44° C | 98% | 1011.2 hPa | 0 mm | - | 9 W/m² | - |
| 1777662922 | 19.44° C | 98% | 1010.9 hPa | 0 mm | - | 31 W/m² | - |
* Rain latest hour (hover to see other rain measurements)
** Current wind speed in m/s (hover to see current wind gust speed)